Weather History for Marfa, TX

Change the Weather History Date:

Friday, November 1, 2013

  Actual Average Record
Temperature  
Mean Temperature 52 °F -  
Max Temperature 68 °F 67 °F 80 °F (2011)
Min Temperature 35 °F 38 °F 26 °F (2005)
Degree Days  
Heating Degree Days 14    
Growing Degree Days 2 (Base 50)    
Moisture  
Dew Point 21 °F    
Average Humidity 30    
Maximum Humidity 56    
Minimum Humidity 16    
Precipitation  
Precipitation 0.00 in - - ()
Sea Level Pressure  
Sea Level Pressure 30.15 in    
Wind  
Wind Speed 9 mph (NW)    
Max Wind Speed 26 mph    
Max Gust Speed 33 mph    
Visibility 10 miles    
Events      
Averages and records for this station are not official NWS values.
T = Trace of Precipitation, MM = Missing Value Source: NWS Daily Summary

Daily Weather History Graph

Daily Weather History Graph

Search for Another Location

Airport:

Trip Planner

Search our weather history database for the weather conditions in past years. The results will help you decide how hot, cold, wet, or windy it might be!

Date:

Astronomy

Nov. 01, 2013 Rise Set
Actual Time 8:10 AM CDT 7:08 PM CDT
Civil Twilight 7:45 AM CDT 7:32 PM CDT
Nautical Twilight 7:17 AM CDT 8:01 PM CDT
Astronomical Twilight 6:49 AM CDT 8:29 PM CDT
Moon 6:12 AM CDT (11/1) 5:57 PM CDT (11/1)
Length of Visible Light 11h 47m
Length of Day
10h 57m
Waning Crescent, 4% of the Moon is Illuminated
Nov 1
Waning Crescent
Nov 3
New
Nov 9
First Quarter
Nov 17
Full
Nov 25
Last Quarter

Hourly Weather History & Observations

Time (CDT) Temp. Windchill Dew Point Humidity Pressure Visibility Wind Dir Wind Speed Gust Speed Precip Events Conditions
12:15 AM 42.8 °F - 21.2 °F 42% 30.10 in 10.0 mi Calm Calm - N/A   Clear
12:35 AM 39.2 °F - 21.2 °F 49% 30.11 in 10.0 mi Calm Calm - N/A   Clear
12:55 AM 37.4 °F - 21.2 °F 52% 30.10 in 10.0 mi Calm Calm - N/A   Clear
1:15 AM 37.4 °F 33.8 °F 21.2 °F 52% 30.10 in 10.0 mi West 4.6 mph - N/A   Clear
1:35 AM 37.4 °F 34.9 °F 23.0 °F 56% 30.10 in 10.0 mi NNW 3.5 mph - N/A   Clear
1:55 AM 37.4 °F 34.9 °F 23.0 °F 56% 30.09 in 10.0 mi WSW 3.5 mph - N/A   Clear
2:15 AM 35.6 °F - 21.2 °F 56% 30.09 in 10.0 mi Calm Calm - N/A   Clear
2:35 AM 39.2 °F 37.0 °F 24.8 °F 56% 30.09 in 10.0 mi WSW 3.5 mph - N/A   Clear
2:55 AM 42.8 °F 39.3 °F 23.0 °F 46% 30.08 in 10.0 mi West 5.8 mph - N/A   Clear
3:15 AM 44.6 °F 40.7 °F 24.8 °F 46% 30.08 in 10.0 mi WSW 6.9 mph - N/A   Clear
3:35 AM 44.6 °F 38.8 °F 26.6 °F 49% 30.07 in 10.0 mi WSW 11.5 mph - N/A   Clear
3:55 AM 48.2 °F - 26.6 °F 43% 30.07 in 10.0 mi WSW 12.7 mph - N/A   Clear
4:15 AM 50.0 °F - 26.6 °F 40% 30.07 in 10.0 mi WSW 11.5 mph - N/A   Clear
4:35 AM 48.2 °F - 24.8 °F 40% 30.07 in 10.0 mi WSW 8.1 mph - N/A   Clear
4:55 AM 46.4 °F 42.4 °F 26.6 °F 46% 30.07 in 10.0 mi WSW 8.1 mph - N/A   Clear
5:15 AM 48.2 °F - 26.6 °F 43% 30.06 in 10.0 mi West 10.4 mph - N/A   Clear
5:35 AM 48.2 °F - 26.6 °F 43% 30.07 in 10.0 mi WSW 9.2 mph - N/A   Clear
5:55 AM 50.0 °F - 26.6 °F 40% 30.07 in 10.0 mi West 10.4 mph - N/A   Clear
6:15 AM 51.8 °F - 24.8 °F 35% 30.06 in 10.0 mi West 12.7 mph - N/A   Clear
6:35 AM 51.8 °F - 24.8 °F 35% 30.07 in 10.0 mi WNW 11.5 mph - N/A   Clear
6:55 AM 51.8 °F - 21.2 °F 30% 30.08 in 10.0 mi West 11.5 mph - N/A   Clear
7:15 AM 53.6 °F - 19.4 °F 26% 30.08 in 10.0 mi West 11.5 mph - N/A   Clear
7:35 AM 51.8 °F - 19.4 °F 28% 30.09 in 10.0 mi West 9.2 mph - N/A   Clear
7:55 AM 53.6 °F - 19.4 °F 26% 30.10 in 10.0 mi WNW 9.2 mph - N/A   Clear
8:15 AM 51.8 °F - 19.4 °F 28% 30.11 in 10.0 mi Calm Calm - N/A   Clear
8:35 AM 51.8 °F - 19.4 °F 28% 30.12 in 10.0 mi West 9.2 mph - N/A   Clear
8:55 AM 53.6 °F - 19.4 °F 26% 30.13 in 10.0 mi West 12.7 mph - N/A   Clear
9:15 AM 55.4 °F - 19.4 °F 25% 30.14 in 10.0 mi WNW 11.5 mph - N/A   Clear
9:35 AM 57.2 °F - 19.4 °F 23% 30.15 in 10.0 mi West 6.9 mph - N/A   Clear
9:55 AM 57.2 °F - 19.4 °F 23% 30.16 in 10.0 mi West 9.2 mph - N/A   Clear
10:15 AM 60.8 °F - 19.4 °F 20% 30.18 in 10.0 mi WNW 11.5 mph - N/A   Clear
10:35 AM 60.8 °F - 19.4 °F 20% 30.18 in 10.0 mi West 10.4 mph - N/A   Clear
10:55 AM 62.6 °F - 19.4 °F 19% 30.18 in 10.0 mi NW 11.5 mph 17.3 mph N/A   Clear
11:15 AM 62.6 °F - 19.4 °F 19% 30.19 in 10.0 mi WNW 17.3 mph 26.5 mph N/A   Clear
11:35 AM 62.6 °F - 19.4 °F 19% 30.18 in 10.0 mi WNW 19.6 mph 24.2 mph N/A   Clear
11:55 AM 62.6 °F - 21.2 °F 20% 30.18 in 10.0 mi WNW 20.7 mph 26.5 mph N/A   Clear
12:15 PM 64.4 °F - 21.2 °F 19% 30.18 in 10.0 mi WNW 19.6 mph 25.3 mph N/A   Clear
12:35 PM 64.4 °F - 21.2 °F 19% 30.18 in 10.0 mi WNW 19.6 mph 29.9 mph N/A   Clear
12:55 PM 66.2 °F - 21.2 °F 18% 30.18 in 10.0 mi WNW 25.3 mph 28.8 mph N/A   Clear
1:15 PM 66.2 °F - 21.2 °F 18% 30.17 in 10.0 mi WNW 24.2 mph 27.6 mph N/A   Clear
1:35 PM 66.2 °F - 21.2 °F 18% 30.17 in 10.0 mi WNW 26.5 mph 33.4 mph N/A   Clear
1:55 PM 66.2 °F - 21.2 °F 18% 30.16 in 10.0 mi NW 20.7 mph 26.5 mph N/A   Clear
2:15 PM 66.2 °F - 21.2 °F 18% 30.16 in 10.0 mi WNW 25.3 mph 31.1 mph N/A   Clear
2:35 PM 66.2 °F - 21.2 °F 18% 30.15 in 10.0 mi WNW 19.6 mph 27.6 mph N/A   Clear
2:55 PM 68.0 °F - 21.2 °F 17% 30.15 in 10.0 mi WNW 21.9 mph 29.9 mph N/A   Clear
3:15 PM 66.2 °F - 21.2 °F 18% 30.14 in 10.0 mi West 20.7 mph 31.1 mph N/A   Clear
3:35 PM 66.2 °F - 21.2 °F 18% 30.14 in 10.0 mi NW 15.0 mph 26.5 mph N/A   Clear
3:55 PM 66.2 °F - 21.2 °F 18% 30.14 in 10.0 mi WNW 17.3 mph 24.2 mph N/A   Clear
4:15 PM 68.0 °F - 21.2 °F 17% 30.14 in 10.0 mi WNW 17.3 mph - N/A   Clear
4:35 PM 68.0 °F - 21.2 °F 17% 30.14 in 10.0 mi NW 17.3 mph 24.2 mph N/A   Clear
4:55 PM 68.0 °F - 19.4 °F 16% 30.14 in 10.0 mi NW 16.1 mph 23.0 mph N/A   Clear
5:15 PM 68.0 °F - 19.4 °F 16% 30.14 in 10.0 mi NW 13.8 mph 20.7 mph N/A   Clear
5:35 PM 66.2 °F - 19.4 °F 17% 30.14 in 10.0 mi WNW 13.8 mph 20.7 mph N/A   Clear
5:55 PM 66.2 °F - 19.4 °F 17% 30.15 in 10.0 mi NNW 15.0 mph 19.6 mph N/A   Clear
6:15 PM 64.4 °F - 17.6 °F 16% 30.15 in 10.0 mi North 15.0 mph - N/A   Clear
6:35 PM 64.4 °F - 17.6 °F 16% 30.16 in 10.0 mi North 15.0 mph 19.6 mph N/A   Clear
6:55 PM 60.8 °F - 17.6 °F 19% 30.17 in 10.0 mi North 10.4 mph - N/A   Clear
7:15 PM 57.2 °F - 17.6 °F 21% 30.18 in 10.0 mi NNW 8.1 mph - N/A   Clear
7:35 PM 53.6 °F - 17.6 °F 24% 30.19 in 10.0 mi North 10.4 mph - N/A   Clear
7:55 PM 51.8 °F - 17.6 °F 26% 30.20 in 10.0 mi NNE 10.4 mph - N/A   Clear
8:15 PM 51.8 °F - 19.4 °F 28% 30.21 in 10.0 mi NNE 10.4 mph - N/A   Clear
8:35 PM 48.2 °F - 19.4 °F 32% 30.22 in 10.0 mi NNE 9.2 mph - N/A   Clear
8:55 PM 48.2 °F - 19.4 °F 32% 30.23 in 10.0 mi NNE 10.4 mph - N/A   Clear
9:15 PM 48.2 °F - 19.4 °F 32% 30.23 in 10.0 mi North 9.2 mph - N/A   Clear
9:35 PM 48.2 °F - 19.4 °F 32% 30.24 in 10.0 mi North 6.9 mph - N/A   Clear
9:55 PM 46.4 °F 45.2 °F 19.4 °F 34% 30.25 in 10.0 mi NE 3.5 mph - N/A   Clear
10:15 PM 44.6 °F 41.4 °F 19.4 °F 37% 30.26 in 10.0 mi NNE 5.8 mph - N/A   Clear
10:35 PM 44.6 °F 39.7 °F 17.6 °F 34% 30.27 in 10.0 mi NNE 9.2 mph - N/A   Clear
10:55 PM 42.8 °F 38.6 °F 17.6 °F 36% 30.28 in 10.0 mi NNE 6.9 mph - N/A   Clear
11:15 PM 41.0 °F 36.4 °F 17.6 °F 39% 30.28 in 10.0 mi North 6.9 mph - N/A   Clear
11:35 PM 39.2 °F 33.0 °F 17.6 °F 42% 30.29 in 10.0 mi North 9.2 mph - N/A   Clear
11:55 PM 39.2 °F 33.0 °F 17.6 °F 42% 30.30 in 10.0 mi North 9.2 mph - N/A   Clear